www.pogodaiklimat.ru

Погода и климат >> Архив погоды >> Россия >> Якутия >> Покровск


ПОГОДА в Покровске

  • Прогноз погоды в Покровске
  • Монитор погоды в Покровске
  • Климат города

АРХИВ ПОГОДЫ в Покровске

Время (UTC), дата Ветер
(напр.,м/с)
 
Видим.   Явления Облачность Т
(С)
Тd
(С)
f
(%)
Тe
(С)
Тes
(С)
Комфортность P
(гПа)
Po
(гПа)
Тmin
(С)
Tmax
(С)
R
(мм)
R24
(мм)
S
(см)
00 12.01 З 5 50 км {снег} 4/0
[Ci fib]
-44.7 -46.4 83 -61 -61 опасность
обморожения
1025.7 1007.4 -45.6 0.0 23
03 12.01 ЮЗ 4 50 км позёмок {метель} 10/0
[Ci fib]
-40.9 -43.2 78 -55 -54 опасность
обморожения
1026.6 1008.5
06 12.01 ЮЗ 3 50 км позёмок {метель} 6/0
[Ci fib]
-40.5 -42.7 79 -52 -52 опасность
обморожения
1028.1 1010.0
09 12.01 З 3 20 км {метель} ясно -41.3 -43.2 82 -53 -53 опасность
обморожения
1029.6 1011.5
12 12.01 ЮЗ 3 20 км {метель} ясно -42.7 -45.0 78 -55 -55 опасность
обморожения
1030.1 1011.9 -40.5
15 12.01 З 2 10 км дымка ясно -47.1 -49.0 81 -57 -57 опасность
обморожения
1029.8 1011.2
18 12.01 штиль 0 4000 м дымка ясно -49.7 -51.2 84 -50 -50 опасность
обморожения
1029.0 1010.2
21 12.01 С 3 10 км дымка ясно -46.3 -48.1 82 -59 -59 опасность
обморожения
1026.8 1008.3
00 13.01 С 4 4000 м дымка ясно -47.4 -49.0 83 -63 -63 опасность
обморожения
1025.5 1006.9 -49.7 23
03 13.01 СВ 5 4000 м дымка ясно -46.6 -49.0 76 -63 -63 опасность
обморожения
1022.7 1004.3
06 13.01 СВ 6 4000 м дымка ясно -45.5 -47.2 83 -63 -63 опасность
обморожения
1021.2 1002.8
09 13.01 СВ 6 4000 м дымка ясно -44.6 -46.4 82 -62 -62 опасность
обморожения
1019.7 1001.6
12 13.01 СВ 6 10 км ясно -43.1 -45.0 81 -60 -60 опасность
обморожения
1019.1 1001.0 -43.1
15 13.01 СВ 5 20 км ясно -43.2 -45.0 82 -59 -59 опасность
обморожения
1017.8 999.7
18 13.01 СВ 5 20 км ясно -43.6 -45.7 80 -60 -60 опасность
обморожения
1017.0 998.9
21 13.01 СВ 4 20 км ясно -43.2 -45.0 82 -57 -57 опасность
обморожения
1015.9 997.8
00 14.01 СВ 3 10 км 10/0
[Ci fib]
-42.3 -44.4 80 -54 -54 опасность
обморожения
1015.3 997.4 -43.6 22
03 14.01 СВ 2 10 км слабый снег 10/0
[Cs]
-40.6 -42.1 85 -50 -50 опасность
обморожения
1014.8 997.1
06 14.01 В 1 20 км {снег} 10/0
[Ci fib]
-39.9 -42.2 78 -45 -45 опасность
обморожения
1015.8 998.0
09 14.01 штиль 0 20 км 3/0
[Ci fib]
-41.8 -43.8 81 -42 -42 опасность
обморожения
1016.6 998.6
12 14.01 штиль 0 4000 м дымка ясно -43.8 -45.7 81 -44 -44 опасность
обморожения
1016.9 998.8 -39.9 0.3
15 14.01 штиль 0 4000 м дымка ясно -43.4 -45.7 78 -43 -43 опасность
обморожения
1016.5 998.4
18 14.01 СВ 2 4000 м дымка ясно -41.6 -43.8 79 -51 -51 опасность
обморожения
1016.1 998.1
21 14.01 СВ 2 4000 м дымка ясно -41.3 -43.2 82 -51 -51 опасность
обморожения
1015.8 997.8
00 15.01 СВ 1 10 км слабый снег 10/0
[Cs]
-41.5 -43.8 78 -47 -47 опасность
обморожения
1015.7 997.7 -44.5 0.0 23
03 15.01 СВ 1 4000 м дымка {снег} 3/0
[Ci fib]
-41.1 -43.2 80 -46 -46 опасность
обморожения
1015.4 997.4
06 15.01 СВ 1 50 км {снег} ясно -40.1 -42.2 80 -45 -45 опасность
обморожения
1014.5 996.8
09 15.01 СВ 2 10 км дымка ясно -41.4 -43.8 77 -51 -51 опасность
обморожения
1015.0 997.1
12 15.01 С 1 4000 м дымка ясно -41.7 -43.8 80 -47 -47 опасность
обморожения
1015.2 997.3 -40.1 0.0
15 15.01 СВ 1 4000 м дымка ясно -40.9 -43.2 78 -46 -46 опасность
обморожения
1015.0 997.3
18 15.01 СВ 2 4000 м дымка ясно -41.4 -43.8 77 -51 -51 опасность
обморожения
1015.4 997.4
21 15.01 С 1 4000 м дымка ясно -42.5 -44.4 81 -48 -48 опасность
обморожения
1015.3 997.4
00 16.01 С 1 10 км дымка 4/0
[Ci fib]
-43.1 -45.0 81 -49 -49 опасность
обморожения
1015.9 997.8 -43.3 23
03 16.01 СВ 2 10 км дымка 10/0
[Ci fib]
-40.7 -42.7 81 -50 -50 опасность
обморожения
1015.7 997.8
06 16.01 СВ 3 10 км дымка 10/0
[Ci fib]
-39.7 -41.7 81 -51 -51 опасность
обморожения
1015.6 997.8
09 16.01 СВ 2 4000 м дымка 10/0
[Ci fib]
-40.8 -43.2 77 -50 -50 опасность
обморожения
1016.0 998.1
12 16.01 С 2 4000 м дымка 6/0
[Ci fib]
-40.9 -43.2 78 -50 -50 опасность
обморожения
1016.4 998.5 -39.7
15 16.01 СВ 2 10 км дымка 10/0
[Ci fib]
-40.5 -42.7 79 -50 -50 опасность
обморожения
1016.6 998.7
18 16.01 ЮВ 1 10 км дымка 10/0
[Ci fib]
-41.3 -43.2 82 -47 -47 опасность
обморожения
1018.1 1000.1
21 16.01 штиль 0 10 км дымка 10/0
[Ci fib]
-42.5 -44.4 81 -43 -43 опасность
обморожения
1018.8 1000.8
00 17.01 штиль 0 500 м туман ясно -41.9 -43.8 82 -42 -42 опасность
обморожения
1019.9 1001.8 -42.5 23
03 17.01 штиль 0 500 м туман ясно -40.1 -42.2 80 -40 -40 опасность
обморожения
1020.0 1002.2
06 17.01 штиль 0 500 м туман ясно -40.8 +1 +1 1020.1 1002.4
09 17.01 штиль 0 500 м туман ясно -39.1 -40.6 86 -39 -39 опасность
обморожения
1021.0 1003.1
12 17.01 СВ 1 500 м туман ясно -38.5 -40.6 80 -44 -44 опасность
обморожения
1021.0 1003.1
15 17.01 СВ 1 10 км слабый снег {туман} 10/0
[Cs]
-38.7 -40.2 86 -44 -44 опасность
обморожения
1021.0 1003.2
18 17.01 З 1 4000 м дымка {снег, туман} 6/0
[Cs]
-40.1 -41.6 85 -45 -45 опасность
обморожения
1020.9 1003.0
21 17.01 штиль 0 4000 м дымка {снег, туман} 6/0
[Cs]
-41.5 -43.8 78 -42 -42 опасность
обморожения
1021.2 1003.1
00 18.01 З 1 4000 м дымка 3/0
[Ci fib]
-42.5 -44.4 81 -48 -48 опасность
обморожения
1021.3 1003.2 -42.5 0.4 23
03 18.01 ЮЗ 1 500 м туман 10/0
[Cs]
-40.4 -42.7 78 -46 -45 опасность
обморожения
1020.9 1003.0
06 18.01 СВ 1 10 км {туман} 6/0
[Ci fib]
-39.3 -41.7 78 -44 -44 опасность
обморожения
1020.9 1003.0
09 18.01 СВ 2 10 км 10/0
[Ci fib]
-40.8 -43.2 77 -50 -50 опасность
обморожения
1021.8 1003.9
12 18.01 штиль 0 4000 м дымка ясно -43.3 -45.7 77 -43 -43 опасность
обморожения
1023.7 1005.5 -39.3
15 18.01 З 1 2000 м дымка ясно -45.7 -48.1 76 -52 -52 опасность
обморожения
1024.4 1006.0
18 18.01 З 1 2000 м дымка ясно -46.6 -49.0 76 -53 -53 опасность
обморожения
1025.5 1007.1
21 18.01 ЮЗ 1 1000 м дымка ясно -47.3 -49.0 82 -53 -53 опасность
обморожения
1026.5 1007.8

 

Местоположение метеостанции Покровск (Якутия, Россия): широта 61.48 долгота 129.10 высота над уровнем моря 121 м.

В архиве по умолчанию представлена погода в Покровске за последнюю неделю. Архивные данные за месяц целиком и за предыдущие месяцы, начиная с января 2011 года, Вы можете получить, выбрав интересующий диапазон дат из раскрывающегося списка и нажав кнопку "Ввод!".

Внимание! Время в таблицах - всемирное. Для получения местного времени необходимо прибавить поправку, которая в Покровске равна 9 ч.

Смотрите также архив погоды в соседних городах и на ближайших метеорологических станциях:

Погода в Якутске (Якутия, Россия) (64 км)
Погода в Тегюльте (Якутия, Россия) (122 км)
Погода в Намцах (Якутия, Россия) (140 км)
Погода в Бердигестяхе (Якутия, Россия) (141 км)
Погода в Амге (Якутия, Россия) (163 км)
Погода в Чурапче (Якутия, Россия) (194 км)
Погода в Исите (Якутия, Россия) (217 км)
Погода в Батамае (Якутия, Россия) (227 км)
Погода в Буяге (Якутия, Россия) (232 км)
Погода в Тонгулахе (Якутия, Россия) (247 км)

Пояснения к столбцам:

Ветер - указаны скорость ветра в м/с - средняя за 10 мин, порывы в срок и между сроками (в фигурных скобках) и направление, откуда дует ветер: С - северный, СВ - северо-восточный, В - восточный, ЮВ - юго-восточный, Ю - южный, ЮЗ - юго-западный, З - западный, СЗ - северо-западный.
Видимость - горизонтальная дальность видимости в метрах или километрах. При видимости от 1 до 10 км при отсутствии осадков обычно наблюдается дымка, при ухудшении видимости до 1 км и менее - туман. В сухую погоду видимость может ухудшаться дымом, пылью или мглою.
Явления - указаны атмосферные явления, наблюдавшиеся в срок или в последний час перед сроком; фигурными скобками обозначены явления, наблюдавшиеся между сроками (за 1-3 часа до срока); квадратными скобками обозначены град или гололедные отложения с указанием их диаметра в мм.
Облачность - указаны через наклонную черту общая и нижняя облачность в баллах и высота нижней границы облаков в метрах; квадратными скобками обозначены формы облаков: Ci - перистые, Cs - перисто-слоистые, Cc - перисто-кучевые, Ac - высококучевые, As - высокослоистые, Sc - слоисто-кучевые, Ns - слоисто-дождевые, Cu - кучевые, Cb - кучево-дождевые. Подробнее классификацию облаков см. в Атласе облаков (PDF).
T - Температура воздуха - температура, измеренная на высоте 2 м над землей.
Td - Температура точки росы - температура, при понижении до которой содержащийся в воздухе водяной пар достигнет насыщения.
f - Относительная влажность воздуха - влажноcть воздуха, измеренная на высоте 2 м над землей.
Te - Эффективная температура - температура, которую ощущает одетый по сезону человек в тени. Характеристика душности погоды. При расчете учитывается влияние влажности воздуха и скорости ветра на теплоощущения человека.
Tes - Эффективная температура на солнце - температура, которую ощущает человек, с поправкой на солнечный нагрев. Характеристика знойности погоды. Зависит от высоты солнца над горизонтом, облачности и скорости ветра. Ночью, в пасмурную погоду, а также при ветре 12 м/с и более поправка равна нулю.
P - Атмосферное давление - приведенное к уровню моря атмосферное давление.
Po - Атмосферное давление - измеренное на уровне метеостанции атмосферное давление.
Tmin - Минимальная температура - минимум температуры воздуха на высоте 2 м над землей.
Tmax - Максимальная температура - максимум температуры воздуха на высоте 2 м над землей.
R - Количество осадков - Количество выпавших осадков за период времени, мм. При наведении курсора мыши на число - период времени, за который выпало указанное количество осадков.
R24 - Количество осадков - Количество выпавших осадков за 24 часа, мм.
S - Снежный покров - Высота снежного покрова, см. При наведении курсора мыши на число - состояние снежного покрова и степень покрытия местности в баллах.